Wind_Speed
20 20 21 21 21 22 22 22 23 22 22 22 23 23 23 24 25 26 28 29 32 34 34 35 35 34 35 36 37 39 40 41 42 42 42 42 42 43 43 42 42 42 44 43
21 21 21 21 21 21 22 21 22 22 21 21 20 20 21 22 24 25 27 29 30 32 34 35 36 35 35 37 39 39 39 42 42 43 44 43 43 43 44 44 44 44 44 45
21 20 21 21 21 21 21 21 20 20 20 20 20 21 22 23 24 26 27 28 29 31 34 35 34 34 35 37 39 40 40 40 42 43 43 43 43 44 44 45 45 46 46 46
21 20 20 20 21 21 21 20 20 19 20 21 21 21 21 23 24 25 26 27 29 31 33 34 34 34 35 36 37 38 39 40 42 43 44 44 44 45 45 46 46 46 47 47
21 20 20 20 20 20 21 20 19 19 20 20 20 21 20 22 23 25 26 27 28 30 32 34 34 34 35 36 37 38 39 40 41 44 45 45 45 45 45 47 48 48 48 48
19 20 20 19 19 19 19 19 19 18 18 19 19 20 21 21 22 23 25 26 28 29 31 32 32 34 35 36 37 38 39 39 41 42 44 45 46 46 45 46 47 47 47 47
19 18 19 19 18 18 19 19 19 18 18 19 19 21 21 21 22 24 24 25 26 28 29 30 30 32 34 35 36 38 40 41 42 43 44 44 46 47 47 47 47 47 47 47
19 18 18 18 18 18 18 19 19 19 19 19 19 20 20 21 22 23 24 24 25 26 27 28 29 30 31 32 34 36 38 40 42 44 45 45 46 48 48 48 47 47 47 47
20 20 18 19 19 19 18 18 19 20 20 20 20 20 20 20 21 22 23 24 24 25 26 27 27 28 30 31 33 35 36 37 40 43 45 46 46 47 47 46 47 48 47 47
20 20 19 19 19 19 19 19 19 20 21 22 22 21 20 20 21 23 23 24 26 27 27 27 28 28 29 31 32 34 35 36 38 40 42 45 46 47 46 45 46 47 47 47
20 20 19 20 20 19 19 19 20 21 22 23 24 22 21 22 22 23 24 25 26 27 27 28 29 30 31 32 32 35 36 37 38 39 41 43 45 46 46 45 46 46 46 46
19 20 20 20 20 20 20 20 21 22 22 23 24 24 22 23 23 24 25 25 26 27 29 30 31 32 33 33 33 35 36 37 38 38 40 41 43 43 44 44 44 44 46 47
19 20 20 20 21 21 21 21 21 22 24 24 24 23 22 24 24 25 26 26 27 28 29 30 31 32 33 33 34 34 35 36 37 37 38 38 40 42 43 43 43 44 44 45
18 19 19 20 20 22 22 21 21 23 24 24 23 23 23 24 25 26 27 28 28 29 29 30 31 31 31 31 32 33 33 34 35 35 36 36 37 38 40 41 42 42 43 43
18 19 19 20 21 21 21 21 22 23 24 24 24 24 24 25 26 26 28 29 29 30 30 29 29 30 30 31 31 32 32 33 33 34 35 35 36 36 38 39 39 39 41 42
19 19 20 19 20 20 20 20 22 23 23 24 24 25 25 25 26 27 28 29 29 30 30 30 29 29 30 30 30 30 31 32 32 33 34 35 36 36 36 37 37 37 38 39
18 19 20 19 19 19 19 20 21 22 23 23 23 24 24 25 26 26 27 28 29 30 29 29 27 27 27 28 28 29 30 31 32 32 33 33 34 34 35 35 35 35 35 36
18 18 20 20 20 20 19 19 20 21 21 22 22 23 24 25 25 26 27 28 28 28 28 28 27 27 25 26 27 29 30 30 31 31 31 31 31 31 32 32 33 33 34 34
17 18 19 19 20 20 19 20 20 21 21 22 23 23 24 24 25 26 26 27 27 27 27 27 27 27 26 26 27 27 29 29 29 29 30 30 30 30 30 30 30 30 30 31
17 18 19 20 20 20 20 20 20 22 22 22 23 24 24 24 25 25 26 26 26 27 27 27 26 26 25 25 25 25 26 27 28 28 29 29 29 30 29 29 29 28 28 29
17 18 18 19 19 20 20 21 21 21 21 22 23 23 23 24 25 25 25 25 25 26 26 26 26 26 26 25 25 25 24 25 26 27 28 29 29 29 29 28 28 27 27 28
17 18 18 19 19 19 19 20 21 21 22 22 23 23 24 24 24 25 25 24 25 25 26 26 25 26 25 25 25 24 24 24 25 25 26 26 27 27 27 26 26 26 26 27
18 18 18 19 19 19 20 20 21 22 22 23 23 23 24 24 24 24 24 25 25 26 26 25 25 25 24 24 24 24 24 25 24 24 23 23 23 22 22 21 21 21 22 23
19 19 20 20 20 20 21 21 21 22 22 23 23 23 23 23 23 24 24 25 25 25 25 24 25 24 24 23 23 24 25 24 24 23 22 21 20 19 19 19 18 19 19 20
20 20 20 21 20 20 20 21 21 22 22 22 22 22 23 23 23 24 24 24 24 24 24 24 24 24 23 23 22 22 22 22 22 21 20 19 19 19 18 18 19 19 19 19
20 21 21 21 20 21 21 21 22 22 22 22 22 22 23 23 23 23 23 23 24 24 24 23 23 23 22 22 21 21 21 21 21 20 20 19 19 18 18 18 18 18 18 18
Wind_Direction
277 274 272 274 273 273 273 275 275 272 268 265 261 257 256 253 251 248 247 248 246 243 243 245 247 249 251 252 252 253 252 251 250 251 251 251 251 252 252 253 255 257 258 257
276 273 272 273 273 274 274 276 277 272 269 267 264 260 258 256 252 251 252 250 247 244 245 248 249 251 252 253 254 253 252 252 251 252 251 251 251 252 253 254 256 257 257 257
278 275 272 271 272 274 274 276 278 273 267 264 264 262 258 256 255 253 254 252 251 249 249 250 253 254 254 254 255 254 254 253 251 251 252 251 251 253 254 255 257 257 257 258
278 276 273 272 274 275 276 276 274 270 267 264 263 262 260 258 257 258 257 255 254 252 252 254 257 256 255 255 256 254 254 254 252 250 251 251 252 253 256 257 257 257 258 259
278 276 274 274 275 277 277 276 274 272 270 266 262 261 262 262 261 260 260 260 259 257 255 256 258 258 257 255 255 255 255 254 252 252 251 251 252 254 257 257 258 259 259 259
280 278 277 277 277 277 277 275 274 275 272 266 262 263 266 266 266 264 264 263 261 259 257 258 261 261 259 257 256 256 256 255 253 253 252 252 253 254 256 257 258 259 259 259
281 280 279 276 273 274 275 273 273 275 275 273 268 266 268 269 270 269 267 266 262 262 263 263 264 264 263 261 258 257 257 256 255 255 254 254 254 255 257 258 259 258 259 259
281 280 278 276 275 276 275 274 273 275 276 276 273 271 271 275 277 275 272 269 266 264 264 265 266 266 265 263 261 259 259 258 257 256 256 256 258 258 260 260 260 259 259 260
279 279 277 275 275 275 275 275 275 275 275 277 278 277 276 277 279 280 277 273 271 270 270 269 269 267 266 266 265 263 262 261 260 259 259 259 259 260 260 261 260 260 260 261
277 276 275 274 273 273 274 276 276 276 278 278 278 279 281 277 278 279 279 277 276 275 275 275 273 271 270 271 270 268 265 265 265 265 264 263 261 260 259 260 259 260 261 260
275 274 274 273 273 273 274 275 276 277 277 280 279 280 280 278 279 281 282 281 278 277 276 277 279 276 274 274 272 270 269 269 269 268 267 265 263 262 261 261 261 261 261 260
273 273 274 272 271 273 273 273 275 277 277 277 280 281 278 278 279 280 282 283 282 279 278 279 280 279 277 275 275 273 271 271 271 270 268 266 265 263 262 262 262 262 262 261
273 274 276 274 273 273 273 274 274 277 278 279 281 282 279 279 279 280 282 284 284 283 281 280 280 280 277 276 275 275 273 273 273 272 271 268 266 264 263 262 262 261 262 262
273 275 277 277 277 275 274 275 275 277 280 280 281 282 280 280 281 282 283 284 285 286 285 283 281 280 279 278 277 276 274 273 273 273 272 271 269 266 263 262 262 262 263 264
274 275 277 278 278 277 276 275 274 276 279 280 280 281 282 281 282 282 284 286 288 287 287 285 284 282 280 280 278 276 274 273 274 273 271 271 270 269 266 264 264 265 264 264
277 276 277 278 278 277 276 277 277 278 280 280 280 281 283 283 283 284 286 287 289 291 290 289 286 284 281 279 277 275 274 274 275 274 272 271 271 270 267 265 267 266 265 264
280 278 277 277 276 274 279 282 281 281 281 281 281 281 281 282 285 287 286 288 290 291 292 291 288 285 282 279 276 275 275 275 276 276 274 273 270 269 268 267 267 266 265 263
280 280 279 277 276 277 282 283 283 284 283 282 282 283 283 284 286 288 288 289 291 292 291 290 288 285 282 281 280 278 277 276 277 277 275 273 271 271 270 268 267 266 266 264
282 281 280 279 278 278 281 283 285 286 285 283 284 285 285 287 287 289 291 291 290 291 292 291 289 286 284 282 281 281 279 278 278 277 275 272 271 272 270 269 268 266 265 265
283 282 281 281 281 281 282 284 287 289 288 287 287 286 285 286 288 289 290 290 288 290 292 293 292 289 287 285 283 282 282 280 279 277 274 272 271 271 270 270 270 268 267 268
283 283 283 283 284 285 284 286 288 289 291 290 289 288 288 288 288 289 290 289 289 290 291 291 290 289 288 287 286 285 284 282 281 279 275 273 273 272 270 269 269 268 268 268
286 286 284 284 286 288 288 288 290 293 293 293 292 291 291 290 288 287 287 288 289 291 291 291 289 289 288 287 286 285 285 285 284 283 281 278 277 275 273 269 267 267 267 268
285 287 285 285 287 288 289 292 294 295 295 294 294 294 292 291 289 288 287 288 290 291 291 289 290 289 287 286 286 285 286 286 286 285 285 283 280 278 275 273 270 269 269 270
283 284 284 285 287 287 289 292 294 296 296 295 295 295 296 295 291 289 289 290 292 292 292 290 289 289 288 287 287 286 286 286 285 285 285 282 279 276 276 276 276 277 276 275
283 283 284 285 286 287 289 292 293 295 296 297 297 297 297 295 294 293 291 292 293 294 292 290 289 288 287 288 288 288 287 286 285 284 283 280 278 278 277 277 279 280 279 279
285 283 283 284 286 288 290 291 293 295 296 296 297 297 296 295 295 295 294 295 295 295 293 291 290 288 286 286 287 287 287 286 284 283 282 278 278 277 276 277 279 280 280 280
Height
5693 5693 5692 5692 5691 5690 5689 5688 5687 5686 5685 5684 5684 5684 5685 5685 5687 5689 5690 5692 5694 5697 5699 5701 5703 5705 5707 5709 5710 5712 5713 5715 5717 5719 5721 5723 5725 5727 5729 5731 5732 5733 5735 5737
5689 5688 5688 5686 5685 5684 5683 5682 5681 5681 5679 5679 5679 5680 5680 5680 5682 5683 5684 5685 5687 5690 5692 5694 5696 5697 5698 5700 5701 5702 5703 5705 5707 5708 5710 5712 5714 5717 5719 5720 5722 5723 5724 5726
5683 5683 5682 5681 5680 5679 5678 5677 5677 5676 5675 5674 5674 5675 5675 5676 5676 5677 5678 5679 5681 5683 5684 5686 5687 5688 5689 5690 5691 5692 5693 5695 5696 5698 5699 5701 5703 5706 5707 5709 5711 5712 5713 5714
5677 5677 5676 5675 5675 5674 5673 5673 5672 5671 5670 5669 5670 5670 5671 5670 5671 5671 5672 5673 5674 5675 5676 5678 5678 5679 5680 5680 5681 5682 5683 5684 5686 5688 5689 5691 5693 5695 5697 5698 5699 5701 5702 5703
5672 5671 5671 5670 5670 5669 5668 5668 5667 5666 5665 5664 5665 5664 5666 5665 5665 5665 5666 5666 5667 5667 5668 5669 5669 5669 5670 5670 5672 5672 5673 5674 5676 5677 5679 5680 5682 5684 5685 5687 5688 5689 5690 5691
5666 5666 5665 5665 5664 5663 5663 5663 5662 5661 5660 5660 5660 5660 5660 5659 5659 5659 5659 5660 5659 5659 5660 5660 5660 5660 5660 5661 5661 5662 5663 5664 5665 5666 5667 5669 5671 5672 5674 5675 5676 5677 5678 5679
5661 5661 5659 5659 5658 5658 5658 5658 5657 5656 5655 5655 5655 5654 5655 5654 5653 5652 5652 5653 5652 5652 5652 5651 5651 5651 5651 5651 5651 5652 5652 5653 5654 5655 5656 5657 5659 5660 5661 5663 5664 5665 5666 5667
5655 5655 5654 5653 5653 5653 5652 5652 5652 5651 5650 5650 5649 5648 5650 5648 5647 5646 5646 5645 5645 5644 5644 5643 5643 5642 5641 5641 5641 5642 5642 5642 5642 5643 5644 5645 5646 5647 5648 5649 5651 5652 5653 5655
5649 5650 5650 5649 5648 5648 5647 5647 5647 5646 5645 5644 5643 5644 5644 5642 5641 5640 5639 5639 5638 5637 5637 5636 5635 5634 5633 5632 5632 5632 5632 5631 5631 5632 5632 5633 5634 5635 5636 5636 5638 5640 5641 5642
5644 5644 5644 5643 5643 5642 5642 5642 5641 5640 5639 5638 5638 5638 5638 5636 5635 5634 5633 5632 5631 5630 5629 5627 5626 5625 5624 5623 5622 5622 5621 5621 5621 5621 5621 5621 5622 5622 5623 5624 5625 5627 5628 5629
5638 5638 5638 5638 5637 5637 5637 5637 5635 5634 5633 5633 5632 5634 5632 5630 5629 5627 5626 5625 5623 5622 5621 5619 5618 5616 5615 5614 5613 5612 5612 5611 5611 5610 5610 5609 5609 5609 5610 5611 5612 5614 5615 5616
5632 5632 5632 5632 5632 5631 5631 5630 5630 5629 5628 5626 5626 5629 5625 5624 5622 5620 5619 5617 5616 5614 5612 5611 5609 5607 5605 5604 5603 5602 5601 5600 5600 5599 5598 5597 5597 5597 5597 5598 5599 5601 5602 5603
5626 5626 5626 5626 5628 5626 5625 5625 5624 5623 5622 5621 5620 5623 5618 5616 5615 5613 5612 5610 5608 5605 5603 5601 5599 5597 5595 5594 5593 5592 5591 5590 5588 5587 5587 5585 5585 5585 5585 5585 5587 5588 5590 5591
5620 5620 5621 5621 5620 5619 5619 5619 5618 5617 5615 5615 5614 5614 5612 5610 5608 5606 5604 5602 5600 5597 5594 5592 5590 5587 5585 5584 5582 5581 5580 5579 5578 5577 5576 5575 5573 5573 5573 5574 5575 5576 5577 5578
5614 5615 5615 5614 5614 5613 5613 5613 5612 5610 5609 5608 5608 5606 5605 5603 5601 5599 5596 5594 5592 5589 5586 5583 5580 5578 5576 5574 5573 5572 5571 5569 5568 5567 5566 5565 5563 5563 5562 5562 5563 5564 5565 5565
5608 5609 5609 5609 5608 5607 5607 5606 5605 5604 5603 5601 5600 5599 5598 5595 5593 5591 5589 5586 5583 5580 5577 5574 5571 5569 5567 5565 5564 5563 5561 5560 5558 5557 5556 5555 5553 5552 5552 5552 5552 5553 5553 5554
5603 5603 5603 5603 5602 5601 5601 5600 5599 5597 5596 5595 5593 5593 5590 5588 5586 5584 5581 5578 5575 5572 5569 5566 5563 5561 5559 5557 5555 5554 5553 5551 5550 5548 5547 5545 5544 5543 5542 5542 5542 5542 5543 5544
5598 5597 5596 5596 5596 5595 5597 5594 5592 5591 5589 5588 5586 5585 5583 5582 5579 5576 5574 5571 5568 5565 5562 5559 5556 5553 5551 5548 5547 5545 5544 5542 5541 5539 5538 5536 5535 5534 5533 5532 5532 5533 5533 5534
5592 5592 5591 5590 5589 5589 5590 5588 5586 5584 5583 5581 5580 5578 5576 5574 5572 5570 5567 5564 5561 5558 5555 5552 5549 5546 5543 5541 5539 5537 5535 5534 5532 5531 5529 5528 5527 5526 5524 5524 5524 5524 5524 5525
5587 5587 5586 5584 5583 5582 5584 5582 5579 5579 5577 5575 5573 5571 5569 5567 5566 5564 5560 5556 5554 5551 5547 5545 5542 5539 5536 5534 5531 5529 5527 5526 5524 5523 5521 5520 5519 5518 5516 5516 5516 5515 5516 5516
5582 5581 5580 5579 5577 5576 5577 5575 5574 5573 5572 5569 5566 5564 5561 5559 5558 5556 5552 5549 5546 5544 5541 5538 5535 5532 5529 5526 5524 5521 5520 5518 5516 5515 5513 5512 5511 5509 5508 5507 5507 5507 5507 5507
5576 5575 5574 5573 5571 5573 5570 5569 5568 5566 5564 5561 5559 5556 5554 5552 5550 5547 5545 5542 5539 5536 5534 5531 5528 5525 5522 5519 5516 5515 5513 5511 5509 5507 5506 5504 5503 5502 5500 5500 5499 5499 5499 5499
5570 5570 5569 5568 5568 5566 5564 5562 5561 5559 5556 5554 5552 5550 5547 5545 5543 5540 5537 5535 5532 5529 5527 5524 5521 5518 5515 5512 5510 5508 5506 5504 5502 5500 5499 5497 5496 5495 5494 5493 5492 5491 5491 5491
5565 5564 5562 5561 5560 5559 5557 5556 5554 5552 5550 5547 5545 5543 5540 5537 5535 5533 5530 5528 5525 5522 5519 5516 5514 5511 5508 5506 5503 5501 5499 5497 5495 5494 5492 5491 5490 5489 5488 5487 5486 5485 5485 5484
5559 5557 5555 5554 5554 5553 5551 5549 5547 5545 5543 5540 5538 5535 5533 5530 5528 5525 5523 5521 5518 5515 5512 5509 5507 5504 5502 5499 5496 5494 5492 5490 5489 5488 5486 5485 5484 5483 5483 5481 5480 5479 5479 5478
5552 5550 5549 5548 5548 5546 5545 5543 5541 5539 5536 5534 5531 5529 5526 5523 5521 5518 5516 5513 5511 5508 5505 5502 5500 5497 5495 5492 5490 5488 5486 5484 5483 5482 5481 5480 5479 5478 5477 5476 5475 5473 5472 5472